[[{"header":{"parameterUnit":"m.s-1","parameterCategory":1,"la1":30.2991,"la2":30.254,"lo1":-89.0895,"lo2":-89.0444,"dy":0.0017,"dx":0.0017,"nx":28,"ny":28,"refTime":"2025-08-09T21:00:00:Z","depth":0,"parameterNumber":2,"parameterNumberName":"U-component_of_WINDS"},"data":[0,0,0,0,0,0,0,0,0,0,0,0,0,0,0,0,0,0,0,0,0,0,0,0,0,0,0,0,0,0,0,0,0,0,0,0,0,0,0,0,0,0,0,0,0,0,0,0,0,0,0,0,0,0,0,0,0,0,-3.7013,-3.7011,0,-3.6871,-3.687,-3.6868,-3.6714,-3.6711,-3.6709,-3.6707,-3.6562,-3.656,-3.6558,0,0,0,0,0,0,0,0,0,0,0,0,0,-3.7153,-3.7151,-3.7013,-3.7011,-3.701,-3.6872,-3.687,-3.6868,-3.6714,-3.6711,-3.6709,-3.6706,-3.6562,-3.656,-3.6558,0,0,0,0,0,0,0,0,0,0,0,0,0,-3.706,-3.7151,-3.7013,-3.6916,-3.6906,-3.6872,-3.6869,-3.6867,-3.6715,-3.6711,-3.6708,-3.6705,-3.6563,-3.6561,-3.6558,-3.6608,0,0,-3.655,-3.6548,0,0,0,0,0,0,0,0,-3.7066,-3.7055,-3.6932,-3.6923,-3.6912,-3.6807,-3.6865,-3.678,-3.6715,-3.6787,-3.6707,-3.6703,-3.6646,-3.6636,-3.6617,-3.6601,-3.6595,-3.6549,-3.6548,-3.6547,-3.6546,0,0,0,0,0,0,0,-3.7072,-3.706,-3.6957,-3.6931,-3.6918,-3.6881,-3.6864,-3.6849,-3.6737,-3.6781,-3.6769,-3.6755,-3.664,-3.662,-3.6612,-3.6592,-3.6549,-3.6547,-3.6545,-3.6544,-3.6615,-3.6618,0,0,0,0,0,0,-3.7093,-3.7067,-3.6961,-3.6953,-3.6982,-3.6881,-3.6862,-3.6844,-3.6737,-3.6717,-3.6758,-3.6748,-3.6626,-3.6616,-3.6607,-3.666,-3.6547,-3.6544,-3.6542,-3.6611,-3.6615,-3.6619,0,0,0,0,0,0,-3.7097,-3.7085,-3.6967,-3.7006,-3.6989,-3.6882,-3.6863,-3.6843,-3.6823,-3.6719,-3.6699,-3.6758,-3.6623,-3.6611,-3.6609,-3.6653,-3.6543,-3.654,-3.6607,-3.6612,-3.6617,-3.6767,0,0,0,0,0,0,-3.7101,-3.7087,-3.7104,-3.7008,-3.6987,-3.6972,-3.6865,-3.6842,-3.6818,-3.6805,-3.6714,-3.6696,-3.662,-3.6614,-3.6607,-3.6647,-3.6538,-3.6603,-3.6609,-3.6616,-3.6758,-3.6777,-3.6793,0,0,0,0,0,-3.7107,-3.7151,-3.7106,-3.7094,-3.7006,-3.6974,-3.6962,-3.6874,-3.6823,-3.6839,-3.6774,-3.6699,-3.665,-3.6616,-3.6606,-3.6646,-3.6599,-3.6607,-3.6615,-3.675,-3.6773,-3.6793,0,0,0,0,0,0,-3.7254,-3.7137,-3.7085,-3.7099,-3.7049,-3.6949,-3.6966,-3.6901,-3.6863,-3.6851,-3.6743,-3.6724,-3.6737,-3.6691,-3.6655,-3.6691,-3.6614,-3.6621,-3.672,-3.6741,-3.6759,-3.6769,-3.6536,0,0,0,0,0,-3.7288,-3.7272,-3.717,-3.7193,-3.717,-3.7074,-3.7057,-3.6993,-3.6936,-3.6913,-3.6847,-3.6795,-3.6768,-3.6752,-3.6721,-3.6751,-3.6731,-3.6774,-3.6792,-3.6807,-3.6814,-3.683,-3.6849,-3.6645,-3.6645,-3.6645,0,0,-3.7358,-3.7292,-3.7288,-3.7221,-3.7174,-3.7161,-3.7056,-3.7046,-3.7035,-3.6911,-3.6907,-3.6858,-3.6792,-3.6808,-3.6811,-3.677,-3.6866,-3.6817,-3.683,-3.6828,-3.684,-3.6859,-3.6877,-3.665,-3.6649,-3.6648,0,0,-3.7479,-3.7427,-3.7442,-3.7398,-3.7329,-3.7265,-3.7269,-3.718,-3.7143,-3.7137,-3.7045,-3.7032,-3.6987,-3.6945,-3.6918,-3.703,-3.696,-3.7023,-3.7115,-3.7132,-3.7148,-3.7161,-3.7203,-3.7219,-3.703,-3.703,-3.703,0,-3.7575,-3.7551,-3.7458,-3.7454,-3.7429,-3.7318,-3.7333,-3.7295,-3.7219,-3.7205,-3.716,-3.7104,-3.7052,-3.7058,-3.7086,-3.7067,-3.707,-3.7032,-3.7153,-3.7166,-3.7177,-3.7216,-3.7232,-3.7038,-3.7037,-3.7036,-3.7036,0,-3.7674,-3.7659,-3.7679,-3.7611,-3.7588,-3.7594,-3.7503,-3.749,-3.7431,-3.7373,-3.7371,-3.7305,-3.726,-3.7257,-3.7198,-3.7257,-3.7234,-3.7173,-3.7093,-3.7206,-3.7241,-3.7255,-3.705,-3.7047,-3.7044,-3.7042,0,0,-3.788,-3.7763,-3.7772,-3.7742,-3.766,-3.7647,-3.765,-3.7607,-3.7601,-3.7553,-3.7554,-3.7521,-3.7466,-3.7435,-3.7371,-3.7386,-3.7482,-3.7323,-3.732,-3.7356,-3.7546,-3.7593,-3.7611,-3.7436,-3.7438,-3.744,-3.7552,0,-3.7988,-3.7985,-3.7903,-3.7924,-3.7911,-3.7808,-3.7811,-3.7762,-3.7709,-3.7691,-3.7632,-3.7611,-3.7538,-3.752,-3.753,-3.7468,-3.7519,-3.7459,-3.7437,-3.7437,-3.7457,-3.7629,-3.7677,-3.7786,-3.7565,-3.7567,-3.7568,0,-3.8111,-3.8074,-3.8095,-3.8016,-3.8007,-3.8011,-3.7968,-3.7952,-3.7895,-3.7856,-3.7825,-3.7753,-3.7752,-3.7679,-3.7677,-3.7638,-3.7625,-3.7594,-3.7596,-3.7591,-3.751,-3.7629,-3.7817,-3.7835,-3.7588,-3.7587,-3.7585,0,-3.8263,-3.8217,-3.8224,-3.8201,-3.8109,-3.8115,-3.8076,-3.8017,-3.7998,-3.7961,-3.7948,-3.7912,-3.7892,-3.7866,-3.7787,-3.774,-3.7796,-3.7714,-3.7765,-3.7767,-3.778,-3.778,-3.797,-3.7771,-3.7771,-3.7771,-3.777,0,-3.8391,-3.8408,-3.8291,-3.8296,-3.8313,-3.822,-3.824,-3.8192,-3.8141,-3.8135,-3.8044,-3.8041,-3.7937,-3.7923,-3.7862,-3.7872,-3.7863,-3.7832,-3.7816,-3.7841,-3.7845,-3.783,-3.7821,-3.7775,-3.7774,-3.7773,-3.7773,0,-3.8562,-3.8484,-3.8485,-3.84,-3.8379,-3.8395,-3.8322,-3.8324,-3.8267,-3.8261,-3.8255,-3.8166,-3.8145,-3.8064,-3.8023,-3.7982,-3.8013,-3.798,-3.8032,-3.8022,-3.8077,-3.8074,-3.8264,-3.8286,-3.8073,-3.8075,-3.8077,0,-3.8649,-3.866,-3.8577,-3.8567,-3.8533,-3.8519,-3.85,-3.841,-3.8395,-3.8335,-3.8344,-3.8317,-3.829,-3.8262,-3.8194,-3.8164,-3.8131,-3.82,-3.8125,-3.8151,-3.8133,-3.8134,-3.8136,-3.8216,-3.8218,-3.8221,-3.8223,0,-3.8813,-3.8775,-3.8751,-3.8717,-3.8698,-3.8665,-3.8627,-3.8625,-3.8525,-3.8513,-3.8492,-3.8472,-3.8432,-3.8407,-3.8366,-3.8328,-3.826,-3.8247,-3.8257,-3.8283,-3.8313,-3.8299,-3.8077,-3.8243,-3.8241,-3.8239,-3.8238,-3.8237,-3.8945,-3.8951,-3.8895,-3.8873,-3.8836,-3.8804,-3.8803,-3.8747,-3.8728,-3.8689,-3.8637,-3.8624,-3.8571,-3.851,-3.8478,-3.8467,-3.8428,-3.8442,-3.8446,-3.8451,-3.8465,-3.8316,-3.8459,-3.8458,-3.8457,-3.8457,-3.8456,0,-3.9105,-3.9065,-3.9046,-3.8998,-3.8982,-3.892,-3.8877,-3.8868,-3.8857,-3.8814,-3.879,-3.8768,-3.8744,-3.8677,-3.8647,-3.8651,-3.862,-3.8647,-3.8645,-3.8638,-3.85,-3.8494,-3.8673,-3.8673,-3.8673,-3.8673,-3.8673,-3.8673,-3.9187,-3.9196,-3.9152,-3.9143,-3.9102,-3.9088,-3.9069,-3.9041,-3.9006,-3.8986,-3.8966,-3.8922,-3.887,-3.8837,-3.8813,-3.8794,-3.8788,-3.8826,-3.8797,-3.8668,-3.8648,-3.8628,-3.8623,-3.8825,-3.8825,-3.8936,-3.8937,-3.8938]},{"header":{"parameterUnit":"m.s-1","parameterCategory":1,"la1":30.2991,"la2":30.254,"lo1":-89.0895,"lo2":-89.0444,"dy":0.0017,"dx":0.0017,"nx":28,"ny":28,"refTime":"2025-08-09T21:00:00:Z","depth":0,"parameterNumber":3,"parameterNumberName":"V-component_of_WINDS"},"data":[0,0,0,0,0,0,0,0,0,0,0,0,0,0,0,0,0,0,0,0,0,0,0,0,0,0,0,0,0,0,0,0,0,0,0,0,0,0,0,0,0,0,0,0,0,0,0,0,0,0,0,0,0,0,0,0,0,0,-1.1613,-1.1613,0,-1.1603,-1.1603,-1.1603,-1.1571,-1.1571,-1.157,-1.1569,-1.156,-1.156,-1.156,0,0,0,0,0,0,0,0,0,0,0,0,0,-1.1604,-1.1605,-1.1613,-1.1613,-1.1613,-1.1603,-1.1603,-1.1603,-1.1571,-1.1571,-1.157,-1.1569,-1.1559,-1.156,-1.156,0,0,0,0,0,0,0,0,0,0,0,0,0,-1.1603,-1.1605,-1.1613,-1.1596,-1.1594,-1.1603,-1.1603,-1.1603,-1.1572,-1.1571,-1.157,-1.1569,-1.1559,-1.156,-1.156,-1.1586,0,0,-1.1562,-1.1563,0,0,0,0,0,0,0,0,-1.1603,-1.1603,-1.1599,-1.1597,-1.1595,-1.1588,-1.1597,-1.1597,-1.1572,-1.158,-1.1569,-1.1568,-1.157,-1.1569,-1.157,-1.1585,-1.1585,-1.1562,-1.1563,-1.1563,-1.1563,0,0,0,0,0,0,0,-1.1603,-1.1603,-1.1609,-1.1599,-1.1597,-1.1589,-1.1587,-1.1597,-1.1581,-1.1579,-1.1577,-1.1576,-1.1569,-1.1569,-1.1569,-1.1585,-1.1562,-1.1563,-1.1563,-1.1564,-1.1619,-1.162,0,0,0,0,0,0,-1.1606,-1.1604,-1.161,-1.1609,-1.1597,-1.159,-1.1588,-1.1591,-1.1581,-1.1578,-1.1577,-1.1575,-1.1569,-1.1569,-1.1569,-1.1598,-1.1563,-1.1564,-1.1564,-1.1618,-1.162,-1.1621,0,0,0,0,0,0,-1.1605,-1.1606,-1.161,-1.1606,-1.1606,-1.1591,-1.1595,-1.1592,-1.1592,-1.1579,-1.1576,-1.1581,-1.1568,-1.1568,-1.1582,-1.1597,-1.1564,-1.1564,-1.1617,-1.1619,-1.162,-1.1656,0,0,0,0,0,0,-1.1605,-1.1607,-1.1616,-1.1606,-1.1606,-1.1623,-1.1596,-1.1592,-1.1593,-1.159,-1.1582,-1.158,-1.1567,-1.1581,-1.1582,-1.1597,-1.1565,-1.1616,-1.1618,-1.162,-1.1653,-1.1658,-1.1663,0,0,0,0,0,-1.1605,-1.1627,-1.1617,-1.1618,-1.1618,-1.1624,-1.1624,-1.1609,-1.1595,-1.1604,-1.1596,-1.158,-1.1595,-1.1583,-1.1584,-1.1599,-1.1615,-1.1617,-1.162,-1.1651,-1.1657,-1.1663,0,0,0,0,0,0,-1.1639,-1.1625,-1.1614,-1.1633,-1.163,-1.1619,-1.163,-1.1616,-1.1618,-1.1615,-1.1596,-1.1595,-1.1611,-1.1606,-1.1593,-1.1623,-1.1602,-1.1605,-1.1625,-1.1631,-1.1636,-1.1637,-1.1565,0,0,0,0,0,-1.1649,-1.1655,-1.1643,-1.1661,-1.166,-1.1645,-1.1647,-1.1636,-1.1632,-1.1631,-1.1624,-1.162,-1.1624,-1.1627,-1.163,-1.1652,-1.165,-1.1663,-1.1668,-1.1672,-1.1675,-1.1686,-1.1692,-1.1629,-1.1629,-1.1629,0,0,-1.1669,-1.1662,-1.1668,-1.1667,-1.1664,-1.1671,-1.1644,-1.1653,-1.1658,-1.1632,-1.1645,-1.1639,-1.1634,-1.1652,-1.1659,-1.1648,-1.1692,-1.1675,-1.1679,-1.1679,-1.1689,-1.1695,-1.17,-1.1631,-1.1631,-1.163,0,0,-1.171,-1.1705,-1.172,-1.1716,-1.1711,-1.1701,-1.1704,-1.1695,-1.169,-1.1702,-1.1683,-1.1688,-1.1695,-1.1693,-1.1692,-1.1731,-1.1716,-1.1732,-1.1758,-1.1769,-1.1774,-1.1778,-1.1792,-1.1798,-1.1735,-1.1735,-1.1735,0,-1.1736,-1.1746,-1.1729,-1.1739,-1.1739,-1.1715,-1.173,-1.1727,-1.1723,-1.1724,-1.1712,-1.172,-1.1715,-1.1732,-1.1741,-1.1741,-1.1745,-1.1734,-1.1775,-1.1779,-1.1783,-1.1796,-1.1801,-1.1737,-1.1737,-1.1737,-1.1736,0,-1.1778,-1.1785,-1.1797,-1.1794,-1.1795,-1.1808,-1.1792,-1.1796,-1.1784,-1.1775,-1.1787,-1.178,-1.1782,-1.1784,-1.1773,-1.1799,-1.1793,-1.1778,-1.1757,-1.1791,-1.1803,-1.1808,-1.174,-1.1739,-1.1739,-1.1738,0,0,-1.1842,-1.1827,-1.1832,-1.183,-1.1822,-1.1827,-1.1838,-1.1838,-1.1842,-1.1839,-1.1848,-1.1854,-1.184,-1.184,-1.1828,-1.1837,-1.1868,-1.1821,-1.182,-1.183,-1.1897,-1.1909,-1.1915,-1.1858,-1.1859,-1.186,-1.1897,0,-1.1881,-1.1898,-1.1883,-1.1903,-1.191,-1.1887,-1.1896,-1.1892,-1.1883,-1.1887,-1.1878,-1.1883,-1.1864,-1.1864,-1.1872,-1.1863,-1.1881,-1.186,-1.1866,-1.1867,-1.1869,-1.1921,-1.1934,-1.197,-1.1902,-1.1903,-1.1903,0,-1.1929,-1.1929,-1.195,-1.1939,-1.1941,-1.195,-1.1949,-1.1953,-1.1948,-1.1941,-1.194,-1.1925,-1.1935,-1.1913,-1.1926,-1.1912,-1.1913,-1.1909,-1.191,-1.1911,-1.1888,-1.1924,-1.1981,-1.1987,-1.1911,-1.191,-1.1909,0,-1.1974,-1.1978,-1.1992,-1.199,-1.1979,-1.1985,-1.198,-1.1974,-1.1975,-1.1974,-1.1975,-1.1975,-1.1975,-1.1976,-1.1961,-1.1947,-1.1976,-1.1953,-1.1971,-1.1972,-1.1979,-1.1979,-1.2038,-1.1979,-1.1979,-1.1979,-1.1979,0,-1.202,-1.2034,-1.2011,-1.202,-1.2035,-1.2016,-1.2031,-1.2024,-1.2018,-1.2025,-1.2004,-1.2011,-1.1991,-1.1995,-1.1983,-1.1996,-1.1996,-1.1991,-1.1988,-1.1994,-1.1994,-1.1995,-1.1993,-1.198,-1.198,-1.1979,-1.1979,0,-1.2073,-1.2059,-1.2072,-1.2059,-1.2056,-1.2067,-1.2057,-1.2064,-1.2053,-1.2062,-1.2063,-1.2047,-1.2051,-1.2036,-1.2038,-1.203,-1.2049,-1.2041,-1.2051,-1.2049,-1.2067,-1.2066,-1.213,-1.2137,-1.2073,-1.2073,-1.2074,0,-1.2104,-1.2114,-1.2102,-1.2105,-1.2101,-1.2106,-1.2107,-1.2088,-1.209,-1.2084,-1.2092,-1.2094,-1.2095,-1.2102,-1.2091,-1.2092,-1.2084,-1.2106,-1.2085,-1.209,-1.2086,-1.2086,-1.2087,-1.2112,-1.2112,-1.2113,-1.2114,0,-1.216,-1.2152,-1.2154,-1.2154,-1.2155,-1.2154,-1.2151,-1.2155,-1.2135,-1.2138,-1.2141,-1.2142,-1.2143,-1.2145,-1.2144,-1.2139,-1.2123,-1.212,-1.2125,-1.2131,-1.2136,-1.2134,-1.2064,-1.2119,-1.2119,-1.2118,-1.2118,-1.2118,-1.2204,-1.2212,-1.2204,-1.2207,-1.2203,-1.2201,-1.2206,-1.2197,-1.2199,-1.2199,-1.2187,-1.2193,-1.2187,-1.2183,-1.2179,-1.2183,-1.2173,-1.2179,-1.2181,-1.2183,-1.2186,-1.2135,-1.2183,-1.2183,-1.2183,-1.2182,-1.2182,0,-1.226,-1.2253,-1.2256,-1.2253,-1.2255,-1.2239,-1.2235,-1.2238,-1.2243,-1.2238,-1.2239,-1.2243,-1.2245,-1.2233,-1.2233,-1.2239,-1.2232,-1.224,-1.224,-1.2239,-1.2195,-1.2192,-1.2246,-1.2246,-1.2246,-1.2246,-1.2246,-1.2246,-1.2289,-1.2301,-1.2292,-1.2302,-1.2296,-1.2301,-1.23,-1.2298,-1.2294,-1.2299,-1.23,-1.2293,-1.2285,-1.2284,-1.2286,-1.2282,-1.2283,-1.2294,-1.2288,-1.2248,-1.2242,-1.2236,-1.2233,-1.2294,-1.2294,-1.2332,-1.2332,-1.2332]}]]